Weather History for Chandler, OK

Change the Weather History Date:

Thursday, February 7, 2013

  Actual Average (KCUH) Record (KCUH)
Temperature  
Mean Temperature 53 °F -  
Max Temperature 64 °F 43 °F 77 °F (2009)
Min Temperature 42 °F 23 °F 4 °F (1985)
Degree Days  
Heating Degree Days 12    
Growing Degree Days 3 (Base 50)    
Moisture  
Dew Point 52 °F    
Average Humidity 95    
Maximum Humidity 100    
Minimum Humidity 81    
Precipitation  
Precipitation 0.00 in - - ()
Sea Level Pressure  
Sea Level Pressure 29.95 in    
Wind  
Wind Speed 10 mph (SSE)    
Max Wind Speed 15 mph    
Max Gust Speed 21 mph    
Visibility 8 miles    
Events Rain    
Averages and records for this station are not official NWS values.
T = Trace of Precipitation, MM = Missing Value Source: NWS Daily Summary

Daily Weather History Graph

Daily Weather History Graph

Search for Another Location

Airport:

Trip Planner

Search our weather history database for the weather conditions in past years. The results will help you decide how hot, cold, wet, or windy it might be!

Date:

Astronomy

Feb. 07, 2013 Rise Set
Actual Time 7:22 AM CST 6:01 PM CST
Civil Twilight 6:55 AM CST 6:27 PM CST
Nautical Twilight 6:25 AM CST 6:58 PM CST
Astronomical Twilight 5:55 AM CST 7:27 PM CST
Moon 4:59 AM CST (2/7) 3:29 PM CST (2/7)
Length of Visible Light 11h 32m
Length of Day
10h 39m
Waning Crescent, 9% of the Moon is Illuminated
Feb 7
Waning Crescent
Feb 10
New
Feb 17
First Quarter
Feb 25
Full
Mar 4
Last Quarter

Hourly Weather History & Observations

Time (CST) Temp. Windchill Dew Point Humidity Pressure Visibility Wind Dir Wind Speed Gust Speed Precip Events Conditions
12:15 AM 53.6 °F - 53.6 °F 100% 29.90 in 5.0 mi South 10.4 mph 17.3 mph N/A   Overcast
12:55 AM 53.6 °F - 53.6 °F 100% 29.90 in 5.0 mi South 13.8 mph 17.3 mph N/A   Overcast
1:15 AM 53.6 °F - 53.6 °F 100% 29.89 in 5.0 mi SSE 11.5 mph - N/A   Overcast
1:35 AM 53.6 °F - 53.6 °F 100% 29.88 in 4.0 mi SSE 10.4 mph - N/A   Overcast
1:55 AM 53.6 °F - 53.6 °F 100% 29.88 in 3.0 mi SSE 11.5 mph - N/A   Overcast
2:15 AM 53.6 °F - 53.6 °F 100% 29.88 in 3.0 mi SSE 12.7 mph 17.3 mph N/A   Overcast
2:35 AM 53.6 °F - 53.6 °F 100% 29.87 in 3.0 mi South 12.7 mph - N/A   Overcast
2:55 AM 53.6 °F - 53.6 °F 100% 29.86 in 3.0 mi SSE 10.4 mph 18.4 mph N/A   Overcast
3:15 AM 53.6 °F - 53.6 °F 100% 29.85 in 2.5 mi SSE 10.4 mph 17.3 mph N/A   Overcast
3:35 AM 53.6 °F - 53.6 °F 100% 29.85 in 2.0 mi South 9.2 mph 16.1 mph N/A   Overcast
3:55 AM 53.6 °F - 53.6 °F 100% 29.84 in 2.0 mi South 15.0 mph 19.6 mph N/A   Overcast
4:15 AM 53.6 °F - 53.6 °F 100% 29.84 in 2.5 mi South 11.5 mph - N/A   Overcast
4:35 AM 55.4 °F - 55.4 °F 100% 29.83 in 4.0 mi South 10.4 mph 17.3 mph N/A   Overcast
4:55 AM 55.4 °F - 55.4 °F 100% 29.83 in 5.0 mi SSE 10.4 mph 18.4 mph N/A   Overcast
5:15 AM 55.4 °F - 55.4 °F 100% 29.82 in 5.0 mi SSE 10.4 mph - N/A   Overcast
5:35 AM 55.4 °F - 55.4 °F 100% 29.82 in 5.0 mi South 11.5 mph 16.1 mph N/A   Overcast
5:55 AM 55.4 °F - 55.4 °F 100% 29.82 in 5.0 mi South 9.2 mph - N/A   Overcast
6:15 AM 57.2 °F - 57.2 °F 100% 29.82 in 7.0 mi South 11.5 mph 17.3 mph N/A   Overcast
6:35 AM 59.0 °F - 59.0 °F 100% 29.82 in 10.0 mi South 10.4 mph 18.4 mph N/A   Overcast
6:55 AM 59.0 °F - 59.0 °F 100% 29.82 in 10.0 mi South 9.2 mph 20.7 mph N/A   Overcast
7:15 AM 59.0 °F - 59.0 °F 100% 29.82 in 10.0 mi SSE 9.2 mph 16.1 mph N/A   Overcast
7:35 AM 59.0 °F - 59.0 °F 100% 29.83 in 7.0 mi South 11.5 mph 17.3 mph N/A   Overcast
7:55 AM 59.0 °F - 59.0 °F 100% 29.84 in 7.0 mi South 8.1 mph - N/A   Overcast
8:15 AM 59.0 °F - 59.0 °F 100% 29.84 in 7.0 mi South 8.1 mph - N/A   Overcast
8:35 AM 59.0 °F - 59.0 °F 100% 29.88 in 7.0 mi West 4.6 mph - N/A   Overcast
8:55 AM 59.0 °F - 59.0 °F 100% 29.90 in 7.0 mi WNW 8.1 mph - N/A Rain Light Rain
9:15 AM 57.2 °F - 57.2 °F 100% 29.89 in 2.5 mi Calm Calm - N/A Rain Rain
9:35 AM 59.0 °F - 59.0 °F 100% 29.89 in 3.0 mi Calm Calm - N/A   Light Drizzle
9:55 AM 57.2 °F - 57.2 °F 100% 29.89 in 3.0 mi Calm Calm - N/A   Overcast
10:15 AM 59.0 °F - 59.0 °F 100% 29.89 in 3.0 mi SE 4.6 mph - N/A   Overcast
10:35 AM 59.0 °F - 59.0 °F 100% 29.89 in 5.0 mi SE 5.8 mph - N/A   Overcast
10:55 AM 59.0 °F - 59.0 °F 100% 29.89 in 7.0 mi ESE 3.5 mph - N/A   Overcast
11:15 AM 60.8 °F - 60.8 °F 100% 29.89 in 10.0 mi SE 5.8 mph - N/A   Mostly Cloudy
11:35 AM 62.6 °F - 60.8 °F 94% 29.89 in 10.0 mi SSE 4.6 mph - N/A   Mostly Cloudy
11:55 AM 64.4 °F - 60.8 °F 88% 29.89 in 10.0 mi Calm Calm - N/A   Mostly Cloudy
12:15 PM 64.4 °F - 60.8 °F 88% 29.88 in 10.0 mi North 4.6 mph - N/A   Overcast
12:35 PM 59.0 °F - 57.2 °F 94% 29.90 in 10.0 mi North - - N/A Rain Light Rain
12:55 PM 55.4 °F - 55.4 °F 100% 29.91 in 10.0 mi North - - N/A   Drizzle
1:15 PM 53.6 °F - 53.6 °F 100% 29.91 in 10.0 mi North - - N/A   Overcast
1:35 PM 55.4 °F - 55.4 °F 100% 29.91 in 10.0 mi North - - N/A   Overcast
1:55 PM 55.4 °F - 53.6 °F 94% 29.92 in 10.0 mi North - - N/A   Overcast
2:15 PM 55.4 °F - 53.6 °F 94% 29.92 in 10.0 mi North - - N/A   Overcast
2:35 PM 55.4 °F - 53.6 °F 94% 29.94 in 10.0 mi North 10.4 mph - N/A   Overcast
2:55 PM 55.4 °F - 51.8 °F 88% 29.94 in 10.0 mi North - - N/A   Overcast
3:15 PM 55.4 °F - 53.6 °F 94% 29.94 in 10.0 mi North - - N/A   Overcast
3:35 PM 55.4 °F - 51.8 °F 88% 29.95 in 10.0 mi North - - N/A   Overcast
3:55 PM 55.4 °F - 51.8 °F 88% 29.97 in 10.0 mi North - - N/A   Overcast
4:15 PM 55.4 °F - 51.8 °F 88% 29.97 in 10.0 mi North - - N/A Rain Light Rain
4:35 PM 53.6 °F - 53.6 °F 100% 29.99 in 10.0 mi North - - N/A Rain Light Rain
4:55 PM 53.6 °F - 53.6 °F 100% 30.00 in 5.0 mi North - - N/A Rain Light Rain
5:15 PM 51.8 °F - 51.8 °F 100% 30.01 in 10.0 mi North - - N/A   Overcast
5:35 PM 51.8 °F - 50.0 °F 94% 30.02 in 7.0 mi North - - N/A   Overcast
5:55 PM 51.8 °F - 50.0 °F 94% 30.03 in 10.0 mi North 10.4 mph - N/A Rain Light Rain
6:15 PM 51.8 °F - 48.2 °F 88% 30.04 in 10.0 mi North 9.2 mph - N/A   Overcast
6:35 PM 51.8 °F - 46.4 °F 82% 30.04 in 10.0 mi North 8.1 mph - N/A   Mostly Cloudy
6:55 PM 50.0 °F - 46.4 °F 87% 30.05 in 10.0 mi North 8.1 mph - N/A   Mostly Cloudy
7:15 PM 50.0 °F - 46.4 °F 87% 30.06 in 10.0 mi NNW 6.9 mph - N/A   Scattered Clouds
7:35 PM 48.2 °F - 46.4 °F 93% 30.07 in 10.0 mi NNW 9.2 mph - N/A   Clear
7:55 PM 48.2 °F - 44.6 °F 87% 30.08 in 10.0 mi North 9.2 mph - N/A   Clear
8:15 PM 48.2 °F - 44.6 °F 87% 30.09 in 10.0 mi North 8.1 mph - N/A   Clear
8:35 PM 46.4 °F 42.9 °F 42.8 °F 87% 30.10 in 10.0 mi NNW 6.9 mph - N/A   Clear
8:55 PM 46.4 °F 41.5 °F 42.8 °F 87% 30.11 in 10.0 mi North 10.4 mph - N/A   Clear
9:15 PM 46.4 °F 41.5 °F 42.8 °F 87% 30.11 in 10.0 mi North 10.4 mph - N/A   Clear
9:35 PM 46.4 °F 41.9 °F 42.8 °F 87% 30.12 in 10.0 mi North 9.2 mph - N/A   Clear
9:55 PM 44.6 °F 40.2 °F 41.0 °F 87% 30.13 in 10.0 mi NNW 8.1 mph - N/A   Clear
10:15 PM 44.6 °F 39.7 °F 41.0 °F 87% 30.14 in 10.0 mi North 9.2 mph - N/A   Clear
10:35 PM 44.6 °F 39.7 °F 41.0 °F 87% 30.15 in 10.0 mi North 9.2 mph - N/A   Clear
10:55 PM 44.6 °F 40.2 °F 39.2 °F 81% 30.16 in 10.0 mi North 8.1 mph - N/A   Clear
11:15 PM 42.8 °F 37.5 °F 39.2 °F 87% 30.17 in 10.0 mi North 9.2 mph - N/A   Clear
11:35 PM 42.8 °F 37.5 °F 39.2 °F 87% 30.17 in 10.0 mi North 9.2 mph - N/A   Clear
11:55 PM 42.8 °F 38.0 °F 37.4 °F 81% 30.17 in 10.0 mi NNW 8.1 mph - N/A   Clear